Location: Ebersheim
(48.3033°N, 7.4991°E)
Time: 09:56:49
(UTC+00:00)

STARLINK-68 - Pass Details

Date: 27 February 2020
Orbit: 529 x 530 km, 53.0° (Epoch: 05 April)

Event Time Altitude Azimuth Distance (km) Brightness Sun altitude
Rises 17:45:48 0° 272° (W) 2,666 9.5 -6.7°
Reaches altitude 10° 17:48:06 10° 279° (W) 1,777 7.8 -7.1°
Maximum altitude 17:51:58 44° 352° (N) 746 4.3 -7.7°
Drops below altitude 10° 17:55:51 10° 66° (ENE) 1,780 5.6 -8.4°
Enters shadow 17:55:57 - 66° (ENE) 1,818 5.7 -8.4°
